Location: French River
(46.0362°N, 80.5373°W)
Time: 05:50:18
(UTC-04:00)

ISS - Visible Passes

Search period start: 28 May 2022 00:00
Search period end: 07 June 2022 00:00
Orbit: 414 x 421 km, 51.6° (Epoch: 28 May)

Date Brightness Start Highest point End Pass type
(mag) Time Alt. Az. Time Alt. Az. Time Alt. Az.
28 May -2.9 22:48:55 10° WNW 22:52:02 36° SW 22:53:07 28° S visible
29 May -3.5 22:00:39 10° WNW 22:03:58 58° SSW 22:06:43 14° SE visible
30 May -1.6 22:50:08 10° W 22:52:09 15° SW 22:53:16 13° SSW visible
31 May -2.1 22:01:23 10° W 22:04:09 24° SW 22:06:53 10° SSE visible
